Starlink 31023

operational
NORAD ID: 58522 Int'l Des: 2023-191 Owner: SPXS Country: US Constellation: starlink
LEOCIRCULAR

About Starlink 31023

Description loading...

Live Position

Loading 3D Globe...

Upcoming Passes

Altitude History

Altitude vs Time

uPlot chart will show altitude changes over time

Two-Line Element Set

1 58522U 23191Q 25257.54124250 -.00000441 00000-0 -17592-4 0 9991
2 58522 43.0031 343.1555 0001061 273.7156 86.3566 15.02533698 98946
Epoch: Sep 14, 2025 • Age: 21 hours

Current Status

Altitude 558.5 km
Velocity 7.58 km/s
Sub-Earth Point 3.19°N, 159.03°W
Launch Date Dec 7, 2023
Age 1.7 years
Type internet

Technical Details

Classification Payload
Mass 730.00 kg
Dry Mass 700.00 kg
Total Mass 730.00 kg
Length 0.30 m
Diameter 4.10 m
Span 29.00 m
Shape Box + pan
Manufacturer SPXS
Bus Type Starlink V2M
Phase Status In Orbit
Owner/State SPXS/US

Large Constellations

Loading constellations...